TimeCST,TemperatureF,Dew PointF,Humidity,Sea Level PressureIn,VisibilityMPH,Wind Direction,Wind SpeedMPH,Gust SpeedMPH,PrecipitationIn,Events,Conditions,WindDirDegrees,DateUTC
12:14 AM,-2.2,-7.6,78,30.34,10.0,Calm,Calm,-,N/A,,Clear,0,2013-02-21 06:14:00
12:34 AM,-2.2,-7.6,78,30.34,10.0,Calm,Calm,-,N/A,,Clear,0,2013-02-21 06:34:00
12:54 AM,-4.0,-7.6,85,30.34,10.0,Calm,Calm,-,N/A,,Clear,0,2013-02-21 06:54:00
1:14 AM,-5.8,-9.4,84,30.35,10.0,Calm,Calm,-,N/A,,Clear,0,2013-02-21 07:14:00
1:34 AM,-5.8,-9.4,84,30.35,10.0,Calm,Calm,-,N/A,,Clear,0,2013-02-21 07:34:00
1:54 AM,-5.8,-9.4,84,30.35,10.0,ENE,3.5,-,N/A,,Clear,70,2013-02-21 07:54:00
2:14 AM,-5.8,-11.2,77,30.36,10.0,East,4.6,-,N/A,,Clear,80,2013-02-21 08:14:00
2:34 AM,-5.8,-9.4,84,30.36,10.0,East,4.6,-,N/A,,Clear,90,2013-02-21 08:34:00
2:53 AM,-5.8,-11.2,77,30.35,10.0,Calm,Calm,-,N/A,,Clear,0,2013-02-21 08:53:00
3:14 AM,-7.6,-11.2,84,30.34,10.0,East,4.6,-,N/A,,Clear,90,2013-02-21 09:14:00
3:34 AM,-7.6,-11.2,84,30.33,10.0,East,6.9,-,N/A,,Clear,80,2013-02-21 09:34:00
3:53 AM,-5.8,-9.4,84,30.33,10.0,East,6.9,-,N/A,,Clear,80,2013-02-21 09:53:00
4:14 AM,-7.6,-11.2,84,30.31,10.0,ENE,6.9,-,N/A,,Clear,70,2013-02-21 10:14:00
4:34 AM,-5.8,-11.2,77,30.30,10.0,ENE,5.8,-,N/A,,Scattered Clouds,70,2013-02-21 10:34:00
4:53 AM,-5.8,-9.4,84,30.29,10.0,ENE,5.8,-,N/A,,Scattered Clouds,70,2013-02-21 10:53:00
5:14 AM,-4.0,-9.4,78,30.28,10.0,East,5.8,-,N/A,,Clear,80,2013-02-21 11:14:00
5:53 AM,-2.2,-7.6,78,30.27,10.0,Calm,Calm,-,N/A,,Clear,0,2013-02-21 11:53:00
6:14 AM,-4.0,-7.6,85,30.29,10.0,Calm,Calm,-,N/A,,Clear,0,2013-02-21 12:14:00
6:34 AM,-4.0,-9.4,78,30.33,10.0,SW,3.5,-,N/A,,Scattered Clouds,220,2013-02-21 12:34:00
6:54 AM,-2.2,-7.6,78,30.35,10.0,SSW,3.5,-,N/A,,Scattered Clouds,210,2013-02-21 12:54:00
7:14 AM,-2.2,-7.6,78,30.35,10.0,South,3.5,-,N/A,,Clear,180,2013-02-21 13:14:00
7:33 AM,-2.2,-7.6,78,30.34,10.0,Calm,Calm,-,N/A,,Clear,0,2013-02-21 13:33:00
7:54 AM,-5.8,-9.4,84,30.33,10.0,Calm,Calm,-,N/A,,Clear,0,2013-02-21 13:54:00
8:14 AM,-4.0,-9.4,78,30.32,10.0,NE,3.5,-,N/A,,Clear,50,2013-02-21 14:14:00
8:34 AM,-2.2,-7.6,78,30.32,10.0,ENE,3.5,-,N/A,,Clear,60,2013-02-21 14:34:00
8:54 AM,-0.4,-5.8,78,30.31,10.0,NE,4.6,-,N/A,,Scattered Clouds,40,2013-02-21 14:54:00
9:14 AM,1.4,-4.0,78,30.30,10.0,ENE,4.6,-,N/A,,Scattered Clouds,70,2013-02-21 15:14:00
9:34 AM,3.2,-2.2,78,30.30,10.0,East,5.8,-,N/A,,Scattered Clouds,100,2013-02-21 15:34:00
9:54 AM,5.0,-0.4,78,30.31,10.0,ESE,6.9,-,N/A,,Scattered Clouds,120,2013-02-21 15:54:00
10:13 AM,6.8,-0.4,72,30.33,10.0,SE,6.9,-,N/A,,Scattered Clouds,140,2013-02-21 16:13:00
10:34 AM,6.8,-0.4,72,30.33,10.0,SSE,3.5,-,N/A,,Mostly Cloudy,160,2013-02-21 16:34:00
10:54 AM,6.8,-0.4,72,30.33,10.0,SSE,4.6,-,N/A,,Mostly Cloudy,150,2013-02-21 16:54:00
11:14 AM,8.6,-0.4,67,30.33,10.0,SE,4.6,-,N/A,,Scattered Clouds,140,2013-02-21 17:14:00
11:34 AM,8.6,1.4,73,30.31,10.0,ESE,4.6,-,N/A,,Scattered Clouds,120,2013-02-21 17:34:00
11:54 AM,10.4,1.4,67,30.31,10.0,ESE,3.5,-,N/A,,Scattered Clouds,120,2013-02-21 17:54:00
12:14 PM,10.4,1.4,67,30.30,10.0,East,4.6,-,N/A,,Clear,90,2013-02-21 18:14:00
12:34 PM,12.2,3.2,67,30.29,10.0,East,4.6,-,N/A,,Scattered Clouds,80,2013-02-21 18:34:00
12:53 PM,12.2,5.0,73,30.27,10.0,East,8.1,-,N/A,,Scattered Clouds,90,2013-02-21 18:53:00
1:14 PM,14.0,5.0,67,30.27,10.0,East,5.8,-,N/A,,Scattered Clouds,100,2013-02-21 19:14:00
1:34 PM,15.8,6.8,68,30.26,10.0,ESE,6.9,-,N/A,,Scattered Clouds,110,2013-02-21 19:34:00
1:53 PM,15.8,6.8,68,30.25,10.0,East,6.9,-,N/A,,Clear,80,2013-02-21 19:53:00
2:14 PM,15.8,6.8,68,30.24,10.0,ENE,6.9,-,N/A,,Clear,70,2013-02-21 20:14:00
2:34 PM,15.8,6.8,68,30.23,10.0,ENE,5.8,-,N/A,,Clear,70,2013-02-21 20:34:00
2:54 PM,15.8,6.8,68,30.22,10.0,ENE,5.8,-,N/A,,Clear,70,2013-02-21 20:54:00
3:14 PM,15.8,8.6,73,30.21,10.0,ENE,6.9,-,N/A,,Clear,60,2013-02-21 21:14:00
3:33 PM,15.8,8.6,73,30.21,10.0,ENE,9.2,-,N/A,,Scattered Clouds,70,2013-02-21 21:33:00
3:54 PM,15.8,6.8,68,30.21,10.0,East,8.1,-,N/A,,Clear,80,2013-02-21 21:54:00
4:14 PM,15.8,8.6,73,30.21,10.0,ENE,5.8,-,N/A,,Clear,60,2013-02-21 22:14:00
4:34 PM,15.8,8.6,73,30.21,10.0,ENE,5.8,-,N/A,,Clear,70,2013-02-21 22:34:00
4:54 PM,15.8,8.6,73,30.20,10.0,ENE,5.8,-,N/A,,Clear,70,2013-02-21 22:54:00
5:13 PM,15.8,6.8,68,30.20,10.0,ENE,5.8,-,N/A,,Clear,70,2013-02-21 23:13:00
5:34 PM,15.8,8.6,73,30.19,10.0,NE,5.8,-,N/A,,Clear,50,2013-02-21 23:34:00
5:54 PM,15.8,8.6,73,30.19,10.0,NE,5.8,-,N/A,,Scattered Clouds,40,2013-02-21 23:54:00
6:14 PM,15.8,8.6,73,30.19,10.0,NNE,4.6,-,N/A,,Mostly Cloudy,30,2013-02-22 00:14:00
6:34 PM,15.8,8.6,73,30.18,10.0,NNE,4.6,-,N/A,,Scattered Clouds,30,2013-02-22 00:34:00
6:54 PM,15.8,8.6,73,30.18,10.0,NNE,4.6,-,N/A,,Scattered Clouds,30,2013-02-22 00:54:00
7:14 PM,15.8,8.6,73,30.17,10.0,NE,4.6,-,N/A,,Scattered Clouds,50,2013-02-22 01:14:00
7:34 PM,15.8,8.6,73,30.16,10.0,ENE,5.8,-,N/A,,Scattered Clouds,60,2013-02-22 01:34:00
7:53 PM,15.8,8.6,73,30.16,10.0,NE,5.8,-,N/A,,Scattered Clouds,50,2013-02-22 01:53:00
8:14 PM,15.8,6.8,68,30.15,10.0,ENE,4.6,-,N/A,,Scattered Clouds,60,2013-02-22 02:14:00
8:34 PM,15.8,6.8,68,30.15,10.0,NE,4.6,-,N/A,,Mostly Cloudy,40,2013-02-22 02:34:00
8:54 PM,15.8,8.6,73,30.14,10.0,NE,8.1,-,N/A,,Mostly Cloudy,40,2013-02-22 02:54:00
9:14 PM,15.8,8.6,73,30.13,10.0,NE,8.1,-,N/A,,Mostly Cloudy,40,2013-02-22 03:14:00
9:34 PM,15.8,8.6,73,30.13,10.0,NNE,4.6,-,N/A,,Scattered Clouds,30,2013-02-22 03:34:00
9:54 PM,15.8,8.6,73,30.13,10.0,North,3.5,-,N/A,,Scattered Clouds,350,2013-02-22 03:54:00
10:14 PM,15.8,8.6,73,30.12,10.0,NNW,3.5,-,N/A,,Clear,330,2013-02-22 04:14:00
10:33 PM,15.8,8.6,73,30.12,10.0,Calm,Calm,-,N/A,,Scattered Clouds,0,2013-02-22 04:33:00
10:54 PM,15.8,8.6,73,30.11,10.0,Calm,Calm,-,N/A,,Scattered Clouds,0,2013-02-22 04:54:00
11:14 PM,15.8,8.6,73,30.10,10.0,NNW,3.5,-,N/A,,Scattered Clouds,340,2013-02-22 05:14:00
11:33 PM,15.8,8.6,73,30.10,10.0,North,4.6,-,N/A,,Mostly Cloudy,350,2013-02-22 05:33:00
11:54 PM,15.8,8.6,73,30.09,3.0,NNW,3.5,-,N/A,Snow,Light Snow,330,2013-02-22 05:54:00